Location: Sihaung
(22.8641°N, 94.0549°E)
Time: 17:58:00
(UTC+00:00)

Cosmos 2154 Rocket - Pass Details

Date: 03 March 2021
Orbit: 966 x 996 km, 82.9° (Epoch: 13 April)

Event Time Altitude Azimuth Distance (km) Brightness Sun altitude
Rises 12:12:23 0° 179° (S) 3,668 7.1 -6.4°
Reaches altitude 10° 12:14:54 10° 178° (S) 2,718 6.4 -7.0°
Maximum altitude 12:21:07 77° 93° (E) 999 4.0 -8.4°
Drops below altitude 10° 12:27:18 10° 8° (N) 2,709 6.2 -9.8°
Sets 12:29:48 0° 7° (N) 3,656 6.9 -10.4°
